Jonesboro, AR

11:18 PM CDT on March 24, 2017 (GMT -0500)
Jonesboro Municipal

Weather History for KJBR - March, 2014

Change the Weather History Date:

Tuesday, March 4, 2014

  Actual Average Record
Temperature  
Mean Temperature 23 °F 46 °F  
Max Temperature 30 °F 56 °F 84 °F (1910)
Min Temperature 16 °F 36 °F 16 °F (1978)
Degree Days  
Heating Degree Days 42 19  
Month to date heating degree days 135 77  
Since 1 July heating degree days 3400 3033  
Cooling Degree Days 0 0  
Month to date cooling degree days 0 0  
Year to date cooling degree days 0 0  
Moisture  
Dew Point 22 °F    
Average Humidity 87    
Maximum Humidity 96    
Minimum Humidity 78    
Precipitation  
Precipitation 0.00 in 0.12 in 2.65 in (1989)
Month to date precipitation 1.57 0.49  
Year to date precipitation 6.28 7.64  
Snow  
Snow 0.00 in - - ()
Month to date snowfall 3.2  
Snow Depth 3.00 in    
Sea Level Pressure  
Sea Level Pressure 30.24 in    
Wind  
Wind Speed 6 mph (ENE)    
Max Wind Speed 10 mph    
Max Gust Speed 14 mph    
Visibility 9 miles    
Events      
T = Trace of Precipitation, MM = Missing Value Source: NWS Daily Summary

Daily Weather History Graph

Daily Weather History Graph

Search for Another Location

Airport or City:

Trip Planner

Search our weather history database for the weather conditions in past years. The results will help you decide how hot, cold, wet, or windy it might be!

Date:

Astronomy

Mar. 04, 2014 Rise Set
Actual Time 6:28 AM CST 6:00 PM CST
Civil Twilight 6:03 AM CST 6:26 PM CST
Nautical Twilight 5:33 AM CST 6:55 PM CST
Astronomical Twilight 5:03 AM CST 7:25 PM CST
Moon 8:22 AM CST (3/4) 9:58 PM CST (3/4)
Length of Visible Light 12h 23m
Length of Day
11h 31m
Waxing Crescent, 15% of the Moon is Illuminated
Mar 4
Waxing Crescent
Mar 8
First Quarter
Mar 16
Full
Mar 23
Last Quarter
Mar 30
New

Hourly Weather History & Observations

Time (CST) Temp. Windchill Dew Point Humidity Pressure Visibility Wind Dir Wind Speed Gust Speed Precip Events Conditions
12:53 AM 19.0 °F 9.0 °F - N/A% 30.36 in 10.0 mi NE 8.1 mph - N/A   Clear
1:53 AM 18.0 °F 11.1 °F - N/A% 30.32 in 10.0 mi NE 4.6 mph - N/A   Clear
2:53 AM 17.1 °F 10.0 °F - N/A% 30.30 in 10.0 mi NNE 4.6 mph - N/A   Clear
3:53 AM 17.1 °F 10.0 °F - N/A% 30.27 in 10.0 mi NE 4.6 mph - N/A   Clear
4:53 AM 16.0 °F - - N/A% 30.30 in 10.0 mi Calm Calm - N/A   Clear
5:53 AM 16.0 °F 5.3 °F - N/A% 30.27 in 10.0 mi NNE 8.1 mph - N/A   Clear
6:53 AM 17.1 °F 8.7 °F - N/A% 30.29 in 10.0 mi NE 5.8 mph - N/A   Clear
7:53 AM 18.0 °F 7.7 °F - N/A% 30.31 in 10.0 mi NNE 8.1 mph - N/A   Clear
8:53 AM 21.0 °F 14.6 °F 18.0 °F 88% 30.34 in 10.0 mi ENE 4.6 mph - N/A   Clear
9:53 AM 23.0 °F 15.8 °F 21.0 °F 92% 30.34 in 10.0 mi ENE 5.8 mph - N/A   Clear
10:53 AM 26.1 °F 20.5 °F 23.0 °F 88% 30.31 in 10.0 mi ENE 4.6 mph - N/A   Clear
11:53 AM 28.0 °F 20.8 °F 25.0 °F 88% 30.26 in 10.0 mi ENE 6.9 mph - N/A   Clear
12:53 PM 28.9 °F 20.4 °F 25.0 °F 85% 30.23 in 10.0 mi East 9.2 mph - N/A   Clear
1:53 PM 28.9 °F 20.4 °F 24.1 °F 82% 30.21 in 10.0 mi East 9.2 mph - N/A   Clear
2:53 PM 30.0 °F 23.2 °F 25.0 °F 82% 30.20 in 10.0 mi East 6.9 mph - N/A   Clear
3:53 PM 30.0 °F 24.1 °F 26.1 °F 85% 30.19 in 10.0 mi East 5.8 mph - N/A   Clear
4:53 PM 30.0 °F 24.1 °F 24.1 °F 79% 30.20 in 10.0 mi ENE 5.8 mph - N/A   Clear
5:53 PM 28.0 °F 21.7 °F 23.0 °F 81% 30.19 in 10.0 mi ESE 5.8 mph - N/A   Clear
6:53 PM 26.1 °F 20.5 °F 21.0 °F 81% 30.20 in 10.0 mi East 4.6 mph - N/A   Clear
7:53 PM 25.0 °F 20.7 °F 19.9 °F 81% 30.21 in 10.0 mi ENE 3.5 mph - N/A   Clear
8:53 PM 24.1 °F 19.7 °F 21.0 °F 88% 30.20 in 10.0 mi East 3.5 mph - N/A   Clear
9:53 PM 21.9 °F 15.7 °F 19.9 °F 92% 30.19 in 10.0 mi East 4.6 mph - N/A   Clear
10:41 PM 23.0 °F 17.0 °F 19.4 °F 86% 30.17 in 9.0 mi East 4.6 mph - N/A   Scattered Clouds
10:50 PM 23.0 °F 15.8 °F 21.2 °F 93% 30.17 in 8.0 mi ESE 5.8 mph - N/A   Mostly Cloudy
10:53 PM 24.1 °F 17.0 °F 21.0 °F 88% 30.17 in 8.0 mi ESE 5.8 mph - N/A   Mostly Cloudy
11:20 PM 24.8 °F 16.9 °F 23.0 °F 93% 30.16 in 4.0 mi ESE 6.9 mph - N/A   Overcast
11:53 PM 25.0 °F 16.3 °F 24.1 °F 96% 30.17 in 2.5 mi SE 8.1 mph - N/A   Overcast